Regional Weather Roundup
Issued by NWS Albany, NY

Home | Current Version | Previous Version | Graphics & Text | Print | Product List | Glossary Off
Versions: 1 2 3 4 5 6 7 8 9 10 11 12 13 14 15 16 17 18 19 20 21 22 23 24 25 26 27 28 29 30 31 32 33 34 35 36 37 38 39 40 41 42 43 44 45 46 47 48 49 50

000
ASUS41 KALY 272110
RWRALY

NEW YORK STATE HOURLY WEATHER ROUNDUP
NATIONAL WEATHER SERVICE ALBANY NY
500 PM EDT WED MAY 27 2015

NOTE: "FAIR" INDICATES FEW OR NO CLOUDS BELOW 12,000 FEET WITH NO
SIGNIFICANT WEATHER AND/OR NO OBSTRUCTIONS TO VISIBILITY.

NYZ032-033-038>043-046>054-057>066-NYZ062>081-272200-
EAST


CITY           SKY/WX    TMP DP  RH WIND       PRES   REMARKS
ALBANY         TSTM      77  68  73 S17G25    30.01F
GLENS FALLS    PTSUNNY   77  69  76 SE10      30.01R
POUGHKEEPSIE   SUNNY     84  68  58 S12G17    30.04F
NEWBURGH       PTSUNNY   81  72  74 S9        30.08S
MONTGOMERY     PTSUNNY   83  68  60 S13       30.04F
WHITE PLAINS   MOSUNNY   76  65  68 SE13G21   30.10F
ISLIP          MOSUNNY   70  61  73 S23G33    30.14F
NEW YORK CITY  MOSUNNY   75  61  61 S18       30.08F
CENTRAL PARK   SUNNY     79  63  57 VRB3      30.11F
$$

NYZ005>009-017-018-044>046-055-056-272200-
CENTRAL


CITY           SKY/WX    TMP DP  RH WIND       PRES   REMARKS
FULTON         PTSUNNY   80  65  59 NW6       29.98S
SYRACUSE       PTSUNNY   83  61  47 SW14      29.98S
ROME           PTSUNNY   82  63  52 SW10G20   30.00S
ELMIRA         PTSUNNY   82  64  54 SW9       30.02S
BINGHAMTON     PTSUNNY   74  62  66 SW7       30.08R
MONTICELLO     CLOUDY    66  66 100 CALM      30.15R THUNDER
$$

NYZ026>034-041>043-272200-
NORTH


CITY           SKY/WX    TMP DP  RH WIND       PRES   REMARKS
WATERTOWN      PTSUNNY   79  64  60 W9        29.96F
FORT DRUM      NOT AVBL
MASSENA        PTSUNNY   81  61  50 SW15G26   29.91F
SARANAC LAKE   PTSUNNY   75  61  61 SW10      29.99R
PLATTSBURGH    CLOUDY    73  66  78 SE8       29.94R
$$

NYZ001>004-010>016-019>021-272200-
WEST


CITY           SKY/WX    TMP DP  RH WIND       PRES   REMARKS
NIAGARA FALLS  MOSUNNY   81  57  43 SW26G37   29.97F
BUFFALO        PTSUNNY   80  58  46 SW17G26   29.99F
DUNKIRK        MOSUNNY   80  60  50 W12       30.01F
JAMESTOWN      MOSUNNY   77  57  50 SW14G21   30.07F
WELLSVILLE     MOSUNNY   76  57  51 SW10G24   30.10R
ROCHESTER      PTSUNNY   84  57  39 W14G23    29.98S
PENN YAN       PTSUNNY   82  58  43 SW10      30.02S
$$

             KEY
       WCI = WIND CHILL INDEX
       VSB = VISIBILITY
       HX  = HEAT INDEX
$$



USA.gov is the U.S. government's official web portal to all federal, state and local government web resources and services.